This demonstration page uses our WeatherBlox Daily Observations layout. Learn more.

40.92945, -100.16068

Hourly Observations for December 4, 2018

Temp ( °F °C ) Dew Point ( °F °C ) Humidity (%) Winds ( mph kmh ) Pressure ( in mb ) Visibility ( mi km ) Precip ( " mm )
12:15 am 00:15 Cloudy 24 -4.3 19 -7 82 82 Calm 30.42 1030 10 16.09344 0 0
12:35 am 00:35 Cloudy 24 -4.2 20 -6.8 82 82 Calm 30.42 1030 10 16.09344 0 0
12:55 am 00:55 Cloudy 25 -4 20 -6.8 81 81 WNW 9 15 30.42 1030 10 16.09344 0 0
1:15 am 01:15 Cloudy 25 -4 19 -7.1 79 79 WNW 10 17 30.42 1030 10 16.09344 0 0
1:35 am 01:35 Cloudy 25 -4 19 -7 80 80 WNW 12 19 30.42 1030 10 16.09344 0 0
1:55 am 01:55 Cloudy 25 -4 19 -7.3 78 78 NW 12 19 30.42 1030 10 16.09344 0 0
2:15 am 02:15 Cloudy 25 -4 19 -7.3 78 78 NW 9 15 30.42 1030 10 16.09344 0 0
2:35 am 02:35 Cloudy 25 -4 19 -7 80 80 NW 10 17 30.42 1030 10 16.09344 0 0
2:55 am 02:55 Cloudy 25 -4.1 19 -7.1 80 80 NW 8 13 30.42 1030 10 16.09344 0 0
3:15 am 03:15 Cloudy 25 -4.1 19 -7 80 80 NW 7 11 30.42 1030 10 16.09344 0 0
3:35 am 03:35 Cloudy 25 -4 20 -6.9 80 80 NW 6 9 30.39 1029 10 16.09344 0 0
3:55 am 03:55 Cloudy 25 -4 20 -6.8 81 81 WNW 6 9 30.39 1029 10 16.09344 0 0
4:15 am 04:15 Cloudy 25 -3.8 20 -6.7 81 81 WNW 12 19 30.39 1029 10 16.09344 0 0
4:35 am 04:35 Cloudy 26 -3.5 20 -6.5 80 80 W 7 11 30.39 1029 10 16.09344 0 0
4:55 am 04:55 Cloudy 26 -3.5 20 -6.5 80 80 WNW 10 17 30.39 1029 10 16.09344 0 0
5:15 am 05:15 Cloudy 26 -3.3 20 -6.4 79 79 WNW 10 17 30.39 1029 10 16.09344 0 0
5:35 am 05:35 Cloudy 26 -3.2 21 -6.2 80 80 WNW 10 17 30.36 1028 10 16.09344 0 0
5:55 am 05:55 Cloudy 26 -3.2 21 -6.3 79 79 WNW 10 17 30.36 1028 10 16.09344 0 0
6:15 am 06:15 Cloudy 26 -3.5 20 -6.6 79 79 WNW 13 20 30.39 1029 10 16.09344 0 0
6:35 am 06:35 Cloudy 26 -3.5 21 -6.3 81 81 W 7 11 30.39 1029 10 16.09344 0 0
6:55 am 06:55 Cloudy 26 -3.5 21 -6.2 82 82 W 6 9 30.39 1029 10 16.09344 0 0
7:15 am 07:15 Cloudy 26 -3.5 21 -6.1 82 82 W 7 11 30.39 1029 10 16.09344 0 0
7:35 am 07:35 Cloudy 26 -3.3 21 -5.9 82 82 W 6 9 30.39 1029 10 16.09344 0 0
7:55 am 07:55 Cloudy 26 -3.2 22 -5.7 83 83 W 6 9 30.36 1028 10 16.09344 0 0
8:15 am 08:15 Cloudy 27 -2.9 22 -5.5 82 82 W 6 9 30.36 1028 10 16.09344 0 0
8:35 am 08:35 Cloudy 27 -2.7 22 -5.3 83 83 W 6 9 30.36 1028 10 16.09344 0 0
8:55 am 08:55 Cloudy 28 -2.5 23 -5.1 83 83 W 5 7 30.36 1028 10 16.09344 0 0
9:15 am 09:15 Cloudy 28 -2 23 -4.9 81 81 WNW 7 11 30.36 1028 10 16.09344 0 0
9:35 am 09:35 Cloudy 29 -1.7 23 -4.8 80 80 WNW 9 15 30.36 1028 10 16.09344 0 0
9:55 am 09:55 Cloudy 29 -1.5 24 -4.6 80 80 WNW 8 13 30.36 1028 10 16.09344 0 0
10:15 am 10:15 Cloudy 30 -1.1 24 -4.7 77 77 WNW 9 15 30.36 1028 10 16.09344 0 0
10:35 am 10:35 Cloudy 30 -1 24 -4.7 76 76 NW 9 15 30.36 1028 10 16.09344 0 0
10:55 am 10:55 Cloudy 31 -0.7 24 -4.7 75 75 NW 14 22 30.36 1028 10 16.09344 0 0
11:15 am 11:15 Cloudy 31 -0.5 23 -4.8 73 73 WNW 13 20 30.36 1028 10 16.09344 0 0
11:35 am 11:35 Cloudy 31 -0.5 23 -5 72 72 NW 13 20 30.36 1028 10 16.09344 0 0
11:55 am 11:55 Cloudy 32 -0.1 23 -4.8 71 71 WNW 12 19 30.3 1026 10 16.09344 0 0
12:15 pm 12:15 Mostly Cloudy 32 -0.1 24 -4.6 72 72 W 8 13 30.3 1026 10 16.09344 0 0
12:35 pm 12:35 Partly Cloudy 32 0 25 -4.1 74 74 W 9 15 30.3 1026 10 16.09344 0 0
12:55 pm 12:55 Sunny 32 -0.1 24 -4.3 74 74 W 9 15 30.3 1026 10 16.09344 0 0
1:15 pm 13:15 Mostly Cloudy 32 0 25 -3.9 75 75 W 12 19 30.27 1025 10 16.09344 0 0
1:35 pm 13:35 Mostly Cloudy 32 0 25 -3.9 75 75 WSW 9 15 30.27 1025 10 16.09344 0 0
1:55 pm 13:55 Partly Cloudy 32 0 26 -3.5 78 78 W 10 17 30.27 1025 10 16.09344 0 0
2:15 pm 14:15 Partly Cloudy 32 0.2 26 -3.2 78 78 WSW 10 17 30.27 1025 10 16.09344 0 0
2:35 pm 14:35 Partly Cloudy 33 0.4 27 -3 78 78 W 14 22 30.27 1025 10 16.09344 0 0
2:55 pm 14:55 Mostly Cloudy 33 0.6 27 -2.8 78 78 W 14 22 30.27 1025 10 16.09344 0 0
3:15 pm 15:15 Mostly Cloudy 33 0.6 27 -2.6 79 79 W 9 15 30.27 1025 10 16.09344 0 0
3:35 pm 15:35 Partly Cloudy 34 1 26 -3.1 74 74 WNW 13 20 30.27 1025 10 16.09344 0 0
3:55 pm 15:55 Sunny 34 1 26 -3.4 73 73 WNW 13 20 30.27 1025 10 16.09344 0 0
4:15 pm 16:15 Sunny 33 0.5 26 -3.5 75 75 WNW 10 17 30.27 1025 10 16.09344 0 0
4:35 pm 16:35 Sunny 32 0 26 -3.5 78 78 WNW 10 17 30.27 1025 10 16.09344 0 0
4:55 pm 16:55 Sunny 32 0 26 -3.6 77 77 W 8 13 30.27 1025 10 16.09344 0 0
5:15 pm 17:15 Clear 30 -1 25 -4 80 80 W 9 15 30.3 1026 10 16.09344 0 0
5:35 pm 17:35 Clear 29 -1.7 24 -4.2 83 83 W 8 13 30.3 1026 10 16.09344 0 0
5:55 pm 17:55 Clear 28 -2.5 24 -4.6 86 86 WSW 8 13 30.3 1026 10 16.09344 0 0
6:15 pm 18:15 Clear 28 -2.5 24 -4.7 85 85 W 8 13 30.3 1026 10 16.09344 0 0
6:35 pm 18:35 Clear 26 -3.4 23 -5.2 88 88 W 8 13 30.3 1026 10 16.09344 0 0
6:55 pm 18:55 Clear 25 -3.8 22 -5.5 88 88 W 8 13 30.33 1027 10 16.09344 0 0
7:15 pm 19:15 Clear 25 -3.9 22 -5.6 88 88 W 8 13 30.33 1027 10 16.09344 0 0
7:35 pm 19:35 Clear 24 -4.7 20 -6.4 88 88 W 8 13 30.33 1027 10 16.09344 0 0
7:55 pm 19:55 Clear 23 -5.1 20 -6.8 88 88 W 8 13 30.33 1027 10 16.09344 0 0
8:15 pm 20:15 Clear 22 -5.6 19 -7.2 89 89 W 8 13 30.33 1027 10 16.09344 0 0
8:35 pm 20:35 Clear 20 -6.5 17 -8.4 87 87 W 7 11 30.33 1027 10 16.09344 0 0
8:55 pm 20:55 Clear 21 -6.3 17 -8.2 87 87 W 7 11 30.33 1027 10 16.09344 0 0
9:15 pm 21:15 Clear 17 -8.4 14 -10.1 88 88 NW 6 9 30.36 1028 10 16.09344 0 0
9:35 pm 21:35 Clear 18 -7.6 16 -9.1 89 89 NW 7 11 30.36 1028 7 11.265408 0 0
9:55 pm 21:55 Clear 17 -8.6 14 -10 90 90 NNW 3 6 30.36 1028 10 16.09344 0 0
10:15 pm 22:15 Clear 19 -7.1 17 -8.3 91 91 Calm 30.39 1029 10 16.09344 0 0
10:35 pm 22:35 Clear 19 -7 17 -8.3 91 91 NW 5 7 30.39 1029 10 16.09344 0 0
10:55 pm 22:55 Clear 16 -8.7 14 -10.2 89 89 W 8 13 30.39 1029 10 16.09344 0 0
11:15 pm 23:15 Clear 16 -8.7 14 -10.2 89 89 WNW 6 9 30.39 1029 10 16.09344 0 0
11:35 pm 23:35 Clear 15 -9.2 13 -10.6 90 90 WNW 6 9 30.42 1030 10 16.09344 0 0
11:55 pm 23:55 Clear 15 -9.7 12 -11.1 90 90 W 6 9 30.42 1030 10 16.09344 0 0

Powered by AerisWeather